QPF
0.00 0.00 0.00 0.00 0.00 0.00 0.00 0.00 0.00 0.00 0.00 0.00 0.00 0.00 0.00 0.00 0.00 0.00 0.00 0.00 0.00 0.00
0.00 0.00 0.00 0.00 0.00 0.00 0.00 0.00 0.00 0.00 0.00 0.00 0.00 0.00 0.00 0.00 0.00 0.00 0.00 0.00 0.00 0.00
0.00 0.00 0.00 0.00 0.00 0.00 0.00 0.00 0.00 0.00 0.00 0.00 0.00 0.00 0.00 0.00 0.00 0.00 0.00 0.00 0.00 0.00
0.00 0.00 0.00 0.00 0.00 0.00 0.00 0.00 0.00 0.00 0.00 0.00 0.00 0.00 0.00 0.00 0.00 0.00 0.00 0.00 0.00 0.00
0.00 0.00 0.00 0.00 0.00 0.00 0.00 0.00 0.00 0.00 0.00 0.00 0.00 0.00 0.00 0.00 0.00 0.00 0.00 0.00 0.00 0.00
0.00 0.00 0.00 0.00 0.00 0.00 0.00 0.00 0.00 0.00 0.00 0.00 0.00 0.00 0.00 0.00 0.00 0.00 0.00 0.00 0.00 0.00
0.00 0.00 0.00 0.00 0.00 0.00 0.00 0.00 0.00 0.00 0.00 0.00 0.00 0.00 0.00 0.00 0.00 0.00 0.00 0.00 0.00 0.00
0.00 0.00 0.00 0.00 0.00 0.00 0.00 0.00 0.00 0.00 0.00 0.00 0.00 0.00 0.00 0.00 0.00 0.00 0.00 0.00 0.00 0.00
0.00 0.00 0.00 0.00 0.00 0.00 0.00 0.00 0.00 0.00 0.00 0.00 0.00 0.00 0.00 0.00 0.00 0.00 0.00 0.00 0.00 0.00
0.00 0.00 0.00 0.00 0.00 0.00 0.00 0.00 0.00 0.00 0.00 0.00 0.00 0.00 0.00 0.00 0.00 0.00 0.00 0.00 0.00 0.00
0.00 0.00 0.00 0.00 0.00 0.00 0.00 0.00 0.00 0.00 0.00 0.00 0.00 0.00 0.00 0.00 0.00 0.00 0.00 0.00 0.00 0.00
0.00 0.00 0.00 0.00 0.00 0.00 0.00 0.00 0.00 0.00 0.00 0.00 0.00 0.00 0.00 0.00 0.00 0.00 0.00 0.00 0.00 0.00
0.00 0.00 0.00 0.00 0.00 0.00 0.00 0.00 0.00 0.00 0.00 0.00 0.00 0.00 0.00 0.00 0.00 0.00 0.00 0.00 0.00 0.00
0.00 0.00 0.00 0.00 0.00 0.00 0.00 0.00 0.00 0.00 0.00 0.00 0.00 0.00 0.00 0.00 0.00 0.00 0.00 0.00 0.00 0.00
MSLP
1023.36 1023.65 1023.84 1024.10 1024.50 1024.36 1024.16 1024.35 1024.52 1024.22 1023.76 1023.28 1022.59 1021.95 1021.66 1022.14 1022.01 1022.13 1021.41 1021.27 1021.18 1020.83
1023.51 1023.80 1024.02 1024.21 1024.25 1024.38 1024.33 1024.20 1024.83 1024.69 1024.28 1023.92 1023.25 1022.35 1022.37 1022.37 1023.12 1022.90 1022.24 1022.33 1022.00 1021.42
1023.42 1023.91 1024.21 1024.41 1024.47 1024.65 1024.99 1025.15 1025.44 1025.42 1024.97 1024.26 1024.06 1022.99 1022.97 1023.21 1023.58 1023.58 1023.24 1023.15 1022.56 1021.95
1023.40 1024.11 1024.43 1024.63 1024.60 1024.92 1025.38 1025.64 1025.87 1025.52 1025.31 1025.07 1024.29 1023.89 1023.76 1023.97 1024.21 1023.92 1023.84 1023.55 1023.33 1022.53
1023.83 1024.19 1024.81 1024.97 1025.05 1025.33 1025.97 1026.02 1026.01 1025.81 1025.66 1025.26 1024.73 1024.72 1024.77 1024.87 1024.85 1024.50 1024.33 1024.00 1023.96 1023.05
1024.24 1024.86 1025.35 1025.46 1025.58 1025.76 1026.05 1026.12 1026.36 1026.28 1025.89 1025.41 1025.21 1025.35 1025.57 1025.56 1025.35 1025.20 1024.89 1024.75 1024.60 1023.76
1024.55 1025.33 1025.70 1026.08 1025.94 1025.96 1026.28 1026.55 1026.63 1026.60 1025.87 1025.57 1025.82 1026.04 1026.14 1026.09 1025.86 1025.61 1025.47 1025.30 1025.03 1024.53
1024.70 1025.39 1026.29 1026.32 1026.40 1026.30 1026.75 1027.13 1026.90 1026.61 1026.15 1025.90 1026.07 1026.45 1026.69 1026.62 1026.41 1026.10 1025.98 1025.77 1025.47 1025.23
1025.00 1025.32 1026.40 1026.33 1026.45 1026.91 1027.45 1027.75 1027.33 1027.12 1026.76 1026.59 1026.74 1026.97 1026.95 1027.10 1027.04 1026.83 1026.58 1026.20 1025.95 1025.85
1025.20 1025.99 1026.43 1026.67 1026.91 1027.45 1028.40 1028.17 1028.07 1027.82 1027.47 1027.50 1027.48 1027.56 1027.60 1027.65 1027.71 1027.56 1027.28 1027.01 1026.74 1026.45
1025.52 1026.29 1026.74 1027.07 1027.55 1028.51 1028.78 1028.97 1028.80 1028.49 1028.48 1028.32 1028.09 1028.17 1028.22 1028.29 1028.42 1028.16 1027.89 1027.60 1027.31 1027.18
1025.25 1026.43 1026.89 1027.53 1028.59 1028.80 1028.98 1029.85 1029.41 1029.40 1029.44 1029.12 1028.79 1028.67 1028.84 1029.00 1028.98 1028.79 1028.55 1028.21 1027.82 1027.78
1025.32 1026.38 1027.21 1028.12 1028.97 1029.15 1029.60 1030.25 1029.98 1030.15 1030.18 1029.82 1029.48 1029.00 1029.26 1029.68 1029.70 1029.61 1029.39 1029.14 1028.80 1027.83
1025.31 1026.08 1027.41 1028.30 1028.96 1029.21 1030.32 1030.47 1030.57 1030.73 1030.69 1030.53 1030.10 1029.51 1029.32 1029.54 1030.17 1030.14 1030.16 1030.13 1029.97 1029.50
Thickness
5501 5496 5491 5486 5478 5473 5470 5464 5459 5456 5454 5450 5449 5447 5445 5437 5435 5430 5434 5433 5432 5431
5487 5482 5477 5472 5467 5460 5457 5451 5444 5439 5435 5431 5429 5429 5425 5422 5411 5411 5415 5411 5412 5413
5475 5468 5463 5458 5452 5447 5439 5432 5425 5419 5416 5415 5408 5411 5407 5401 5394 5393 5394 5392 5394 5396
5463 5455 5450 5445 5441 5433 5423 5416 5409 5406 5401 5396 5397 5393 5389 5382 5376 5378 5377 5377 5376 5380
5448 5443 5435 5432 5426 5417 5406 5401 5395 5392 5387 5385 5384 5378 5372 5366 5363 5363 5363 5364 5362 5366
5434 5427 5421 5416 5409 5402 5395 5390 5382 5378 5375 5373 5370 5363 5356 5352 5351 5351 5352 5351 5350 5354
5422 5412 5406 5399 5397 5393 5385 5377 5370 5365 5365 5360 5354 5347 5342 5341 5342 5343 5343 5343 5343 5343
5409 5402 5391 5388 5385 5382 5372 5362 5359 5355 5352 5348 5341 5335 5333 5333 5335 5336 5336 5336 5336 5335
5395 5391 5379 5379 5377 5369 5358 5350 5348 5344 5343 5337 5329 5326 5327 5327 5327 5328 5329 5330 5330 5327
5383 5375 5370 5367 5364 5355 5343 5341 5335 5335 5334 5327 5321 5320 5319 5319 5319 5320 5321 5322 5323 5324
5370 5362 5357 5355 5349 5337 5332 5325 5324 5325 5321 5318 5316 5313 5312 5312 5312 5313 5314 5315 5316 5316
5362 5352 5348 5342 5331 5328 5326 5313 5315 5313 5310 5308 5308 5308 5306 5305 5306 5305 5306 5308 5309 5308
5351 5342 5336 5328 5320 5318 5311 5304 5308 5304 5301 5303 5301 5302 5299 5299 5298 5296 5297 5298 5300 5303
5342 5338 5326 5317 5312 5309 5298 5298 5296 5294 5294 5296 5296 5298 5295 5293 5291 5289 5290 5289 5288 5290